RH
10 9 8 8 8 8 8 10 11 10 13 14 15 16 13 12 12 11 12 12 12 12 12 12 13 13 14 12 11 11 10 11 12 12 12 12 12 12 12 12 13 14 14 16 15
10 10 9 9 10 11 12 13 14 14 12 15 14 19 18 16 14 13 13 13 13 13 13 14 13 13 14 15 14 13 13 12 13 13 13 13 14 13 13 13 12 13 14 16 16
11 10 10 13 15 14 12 11 15 17 15 14 16 21 21 19 19 14 14 13 12 13 15 15 15 16 15 15 16 15 14 14 14 14 13 15 15 15 13 14 13 14 15 16 15
11 14 15 15 14 13 12 11 16 20 21 22 23 24 24 23 21 17 14 13 12 15 16 16 16 18 17 17 18 16 16 16 16 15 16 17 17 15 14 16 15 14 15 15 16
16 15 16 15 15 15 17 20 21 26 27 25 26 25 23 21 19 17 15 14 14 15 16 16 16 16 13 11 12 15 18 18 19 21 21 20 19 17 17 18 18 17 16 15 17
15 16 15 15 14 16 21 28 29 30 30 28 26 25 21 18 16 15 13 10 9 8 8 8 9 10 10 9 9 10 11 16 20 23 23 22 21 19 19 19 19 19 17 18 18
15 16 15 14 14 16 25 30 32 33 33 31 29 22 22 19 13 8 7 6 7 9 8 7 6 5 5 5 5 6 8 9 12 14 16 16 18 18 18 19 20 20 19 20 16
17 16 16 14 21 26 30 33 35 36 33 28 25 24 12 9 9 11 12 18 20 15 13 10 8 8 9 9 10 9 9 9 11 12 12 13 15 15 17 21 22 20 20 18 13
16 15 18 21 26 28 30 33 32 30 28 20 11 9 10 12 12 14 22 23 22 25 26 26 25 22 22 22 22 25 24 21 18 21 21 23 24 23 23 24 22 21 20 15 14
14 16 19 22 24 25 27 28 25 10 10 10 10 11 12 11 11 11 13 17 20 21 23 22 20 19 20 23 25 26 28 30 28 26 25 24 26 23 22 24 23 22 19 16 16
14 15 19 22 20 22 24 11 7 10 10 10 10 10 11 11 15 26 31 35 34 33 32 32 32 32 35 33 26 21 22 25 27 26 26 25 23 22 20 22 21 20 19 18 18
15 16 19 22 20 23 8 7 8 10 10 10 11 11 14 21 33 34 32 30 31 32 30 28 24 23 26 32 35 34 32 27 23 24 22 23 22 20 20 19 19 19 20 22 23
17 17 20 20 23 8 7 7 9 10 9 10 12 13 19 25 30 30 30 28 27 24 18 14 14 15 14 15 27 34 34 36 31 30 24 19 18 19 20 21 21 22 24 27 28
20 20 21 24 9 8 8 10 12 11 10 11 15 21 22 25 28 27 27 22 19 14 15 23 28 28 27 24 23 32 36 38 37 33 28 28 20 21 22 23 25 27 31 32 33
25 28 25 8 8 9 10 11 12 13 13 14 15 17 23 23 22 23 19 16 15 19 27 31 34 36 37 37 29 33 38 37 37 32 31 29 24 24 26 27 30 33 34 34 34
30 28 10 8 10 12 13 13 12 13 15 14 13 16 17 19 18 17 17 16 18 27 27 28 29 31 36 40 38 37 42 37 33 30 29 30 27 33 37 36 35 34 35 35 36
28 22 10 9 13 15 15 14 14 14 14 15 15 14 13 15 16 16 16 18 25 27 25 24 26 29 32 38 44 42 48 40 31 29 27 28 24 34 36 35 34 33 35 35 32
21 12 10 11 14 15 15 15 16 16 14 14 15 14 15 15 16 17 19 23 25 26 24 24 24 27 28 32 42 44 49 50 39 32 28 30 31 32 38 35 31 33 35 32 33
12 11 11 12 12 14 15 16 17 16 14 14 15 14 14 16 18 19 22 23 23 22 22 21 21 22 26 32 39 46 47 50 46 40 34 35 34 38 43 40 37 37 36 38 40
11 11 12 12 13 16 16 17 17 16 15 16 16 17 19 21 22 23 23 20 19 18 16 17 17 19 24 28 32 49 47 48 49 44 36 32 33 40 48 46 45 45 44 42 37
12 12 12 12 14 15 16 17 16 16 18 18 19 22 23 23 23 20 18 16 16 18 18 18 17 19 23 28 36 49 56 52 57 60 51 41 32 51 46 59 58 47 41 41 45
13 12 13 13 14 16 17 18 19 20 20 22 24 25 25 23 20 17 19 21 20 19 18 16 16 18 21 27 40 48 61 70 70 62 56 55 28 50 66 64 57 51 46 48 54
23 22 20 19 19 19 21 22 22 23 24 24 24 24 22 21 21 21 21 20 19 19 17 16 16 18 20 36 49 54 63 68 79 67 65 71 49 66 70 56 52 54 56 59 62
19 16 17 19 22 23 24 24 24 24 24 25 25 25 24 25 26 26 27 28 28 24 21 18 14 20 28 48 56 60 71 80 74 74 73 56 56 61 64 57 59 65 68 69 70
21 20 21 23 24 25 25 27 28 30 33 34 31 32 33 33 31 27 23 21 22 24 33 36 31 36 44 56 58 61 66 71 77 83 74 61 61 68 65 64 72 73 74 70 69
24 23 24 26 32 43 50 52 54 52 49 44 42 44 46 38 27 21 20 25 30 36 48 53 52 59 53 64 62 54 63 82 87 76 68 65 64 71 69 68 71 70 67 65 65
52 54 56 56 55 53 55 62 60 57 56 52 51 50 44 26 22 29 38 43 44 47 49 60 72 76 56 69 63 55 80 80 90 96 87 86 84 78 72 70 65 62 60 61 64
Wind_Speed
8 8 10 11 11 12 12 13 12 10 8 8 10 9 8 8 9 9 10 12 13 13 14 16 16 16 16 16 17 17 17 18 18 18 19 20 20 20 20 19 19 19 19 20 20
10 11 11 11 11 11 12 12 11 11 10 10 11 11 10 10 10 10 11 12 14 15 15 16 17 18 18 18 19 20 20 20 20 21 21 22 22 22 22 21 21 21 21 22 23
11 11 10 9 12 15 16 14 12 11 11 11 11 10 10 11 12 12 13 13 14 16 16 17 17 17 17 18 19 21 21 22 22 23 23 23 23 23 23 23 23 23 23 24 25
9 8 10 13 17 18 17 16 13 12 11 11 10 11 12 12 14 13 15 16 17 17 17 17 16 16 17 18 19 20 22 23 23 23 24 24 23 23 24 25 25 25 26 26 27
9 11 15 16 16 16 16 14 12 12 12 12 12 13 13 13 14 13 15 17 18 18 17 18 18 19 20 20 21 22 23 24 24 24 24 24 25 25 27 27 26 27 27 27 28
12 16 15 15 15 15 14 13 12 12 12 12 13 13 13 13 14 14 16 18 19 19 20 20 21 22 23 24 25 24 25 26 27 27 27 27 27 26 29 28 28 28 27 27 28
15 14 12 13 12 9 10 11 11 11 11 11 11 12 12 15 15 16 16 17 16 16 16 16 16 17 19 21 23 25 26 27 28 28 28 29 29 28 29 28 28 28 28 28 28
13 11 9 7 6 8 10 9 8 9 9 10 10 12 14 14 14 14 12 10 10 10 10 10 11 13 14 16 16 18 20 23 24 26 26 28 27 27 26 25 27 27 28 28 29
13 9 6 5 7 7 6 6 6 7 8 10 12 12 11 11 10 10 9 10 10 10 11 12 13 13 14 16 16 17 18 19 20 22 22 24 24 25 23 24 27 28 27 29 31
11 10 7 4 5 4 4 5 7 9 10 10 10 9 9 9 9 9 10 10 11 12 14 14 15 17 18 18 19 20 21 21 22 21 22 24 23 28 24 26 27 28 28 31 33
9 9 8 5 3 2 6 7 8 9 11 10 8 8 8 8 7 9 10 12 14 16 18 19 21 22 22 22 23 25 26 25 26 27 25 27 24 28 25 26 27 29 30 32 35
7 7 8 5 3 4 5 7 9 11 10 8 8 7 6 7 8 9 11 14 16 19 22 24 26 26 26 26 26 26 26 28 30 31 31 29 28 28 29 29 30 31 32 33 34
5 5 6 4 4 4 7 7 10 12 10 8 8 7 7 8 9 12 15 16 19 22 25 27 29 30 31 30 29 28 26 25 27 27 31 32 31 30 30 30 30 31 31 32 34
7 6 6 6 5 5 6 7 10 13 12 9 8 9 9 11 13 14 17 19 21 23 25 28 31 34 35 35 34 31 28 27 27 27 26 26 30 25 27 26 28 29 31 31 34
11 10 8 7 7 7 7 8 11 14 15 12 13 12 13 14 16 17 20 21 22 23 25 28 32 35 37 37 36 33 30 28 28 28 24 23 25 23 23 23 26 26 30 33 34
14 12 10 9 9 8 10 11 13 15 13 16 15 15 16 17 19 20 21 23 24 25 27 30 33 37 40 39 38 35 32 30 29 27 23 24 24 21 19 22 24 28 29 30 31
15 15 14 12 11 11 12 13 14 17 19 18 19 20 20 20 21 22 24 25 26 29 30 31 35 39 42 43 42 37 33 32 30 27 23 21 20 19 15 16 20 27 30 32 36
16 16 15 14 13 13 14 15 16 20 21 21 22 23 21 22 24 25 26 27 28 31 33 34 36 41 44 48 46 39 34 32 33 28 25 24 25 24 20 23 26 30 34 38 40
17 17 16 16 16 17 18 18 20 22 22 23 24 24 22 25 27 28 29 30 33 34 37 41 40 43 45 49 48 45 36 34 34 33 34 32 29 31 26 27 32 37 38 41 43
18 19 19 19 19 20 21 22 24 25 25 25 26 25 26 28 29 32 33 36 38 40 41 44 46 44 48 51 50 45 39 35 36 38 40 38 35 38 33 37 37 40 44 47 49
19 20 22 22 22 24 25 26 25 26 28 27 27 29 31 34 34 37 38 41 42 43 45 48 47 48 49 52 53 45 40 37 36 38 43 42 45 39 41 42 45 47 49 51 52
21 22 24 26 26 27 27 27 27 28 29 30 31 33 36 38 40 41 42 44 47 49 50 53 53 52 52 54 52 47 40 36 35 38 42 42 48 41 43 45 49 51 53 54 58
24 25 26 27 27 27 27 28 29 30 32 34 37 39 41 43 47 47 49 50 50 51 52 56 57 57 60 60 56 48 43 42 39 40 41 47 45 45 47 54 56 55 56 61 64
25 25 25 26 26 28 29 31 33 35 37 40 43 45 47 48 50 53 52 53 54 54 54 57 59 57 60 59 57 55 49 42 41 44 45 47 48 47 52 54 53 56 63 65 66
27 27 27 28 29 32 34 36 39 42 43 45 47 49 50 51 51 51 53 53 53 54 56 59 64 66 64 57 51 49 47 43 46 46 54 49 55 50 53 57 59 61 63 66 68
32 32 32 33 34 36 38 40 42 45 46 47 49 50 49 50 53 52 53 53 56 59 62 64 66 64 65 56 51 49 45 46 52 56 54 54 55 59 63 66 65 65 68 68 68
37 38 38 39 40 41 43 47 48 49 50 52 52 53 54 54 53 53 56 60 65 68 68 68 62 60 63 58 59 58 60 59 55 52 57 61 62 65 67 67 68 69 70 69 68
Wind_Direction
254 273 285 288 293 300 307 310 310 303 300 313 316 313 308 299 293 291 290 288 290 287 276 278 283 286 282 274 269 267 269 270 275 276 276 278 275 275 277 275 272 277 287 298 303
265 277 285 291 300 308 309 309 314 305 299 300 309 312 305 305 298 296 295 295 297 297 293 289 285 284 281 276 273 271 270 272 274 276 277 276 275 272 271 273 273 276 284 292 300
277 288 294 299 304 305 303 298 300 307 300 298 303 307 306 299 297 290 287 292 297 297 293 287 285 284 281 281 275 273 272 272 272 274 275 274 271 268 269 273 275 276 281 289 298
283 287 292 294 297 299 297 294 290 293 297 297 300 303 304 302 300 295 289 293 297 298 297 290 286 286 284 283 280 278 276 275 274 273 273 271 271 269 269 272 276 277 282 288 294
275 284 293 295 296 297 297 297 289 289 291 293 297 302 304 303 301 297 295 297 297 298 295 289 286 285 286 284 281 276 275 273 273 272 272 271 271 269 270 271 274 277 279 285 291
280 290 296 300 302 301 302 302 294 288 288 293 298 304 306 307 307 307 304 302 298 294 289 286 285 283 283 283 281 279 276 274 273 272 272 272 271 270 270 271 273 275 278 284 286
288 294 303 306 303 312 313 303 298 296 295 297 300 304 307 308 307 306 308 310 309 308 303 296 292 290 286 284 281 279 277 275 274 274 273 272 271 270 271 271 272 273 278 282 286
287 292 303 314 325 315 306 303 305 303 302 300 301 305 306 309 311 319 320 329 338 342 344 337 324 312 307 301 298 293 287 281 277 276 275 274 273 271 270 270 270 272 276 281 285
286 275 283 317 315 318 320 325 325 319 312 307 306 306 309 315 320 327 339 340 337 341 343 344 339 331 322 316 310 306 302 295 287 283 280 279 278 274 272 272 272 275 278 282 286
278 260 258 290 312 322 326 344 330 323 319 317 315 313 316 322 334 351 352 347 351 353 352 345 336 325 315 309 307 303 298 296 292 287 284 282 279 280 275 271 273 273 278 284 288
278 258 246 268 287 318 330 337 331 332 325 323 324 324 331 346 8 4 357 358 357 356 355 350 345 339 331 324 315 303 297 294 289 285 283 284 284 281 279 274 273 275 280 285 287
283 258 242 253 252 313 328 333 336 335 330 329 330 332 354 4 6 356 348 348 346 346 345 341 338 335 332 327 320 311 303 297 292 288 286 281 280 282 282 280 278 280 283 284 285
275 245 237 231 273 302 322 333 341 346 342 334 337 337 340 339 340 341 341 341 340 337 337 336 332 331 327 323 322 316 311 306 298 292 290 286 279 277 278 277 276 279 282 283 285
247 237 234 249 257 294 308 331 341 349 350 336 331 327 325 325 329 330 330 331 330 332 336 338 337 336 333 327 322 321 312 310 311 307 299 288 283 278 277 276 277 279 280 280 281
244 240 241 247 270 286 302 318 328 338 342 333 322 319 314 317 320 319 321 323 327 333 337 339 341 340 336 330 322 318 314 308 312 311 306 299 292 290 285 282 280 280 279 281 283
247 243 234 256 267 282 300 310 316 323 330 325 321 311 309 310 313 316 318 320 323 328 331 333 334 336 335 331 326 318 314 308 308 314 310 306 300 302 290 284 283 283 284 287 290
247 246 243 252 261 276 291 300 306 313 316 318 316 313 307 306 310 312 314 317 320 322 326 327 329 331 334 333 327 319 315 312 305 310 314 311 309 303 307 296 290 288 288 289 293
249 246 255 258 265 277 289 294 302 306 307 308 311 311 304 304 305 308 309 312 315 317 318 322 327 330 334 334 327 318 313 311 309 306 306 309 311 309 312 308 301 292 293 294 295
248 250 254 261 269 280 287 291 296 299 300 299 302 303 301 301 303 306 307 312 312 315 319 319 324 328 330 332 328 321 309 307 304 301 302 304 307 309 316 311 298 296 295 294 297
255 256 259 265 272 281 287 289 292 295 297 298 299 299 300 302 303 306 309 310 311 314 317 316 318 324 326 328 326 322 310 304 301 302 301 303 304 308 313 308 304 299 298 299 298
263 262 266 271 276 282 286 288 290 292 295 295 296 298 300 302 303 305 307 307 310 312 314 313 313 320 323 326 324 319 315 304 298 296 297 300 299 312 311 307 302 299 298 296 297
271 269 272 275 279 283 285 288 289 292 292 293 295 296 298 300 302 303 305 307 308 309 310 309 310 315 318 323 322 313 312 308 302 298 296 301 292 311 304 298 294 295 295 294 295
274 273 275 277 280 282 284 288 289 290 292 294 295 297 298 301 302 303 304 305 307 308 308 308 309 314 316 320 317 311 306 302 302 296 299 291 304 300 300 297 296 295 294 296 298
275 275 275 277 280 284 287 289 291 292 293 295 296 297 298 299 301 302 303 303 304 305 305 305 306 307 310 313 309 304 300 302 301 298 296 299 297 297 293 292 292 293 295 296 296
276 276 278 281 282 285 287 291 293 294 296 298 299 298 299 300 300 299 299 300 302 304 305 304 304 305 306 307 303 298 295 297 294 297 295 299 297 296 293 292 290 292 294 295 297
278 278 279 281 284 287 290 292 294 296 298 299 298 299 300 301 298 301 299 300 301 303 305 307 306 306 304 305 300 296 300 295 295 295 293 292 293 292 292 293 295 295 295 295 295
281 281 283 285 286 287 289 290 293 295 297 297 296 297 300 297 297 298 301 302 302 304 303 306 309 309 305 305 301 297 297 300 298 299 297 299 298 296 296 298 299 298 297 297 297